GFSGBSN_700_rhum_234.txt.gz
RH
82 85 76 13 8 9 13 18 22 24 27 25 27 29 29 28 27 25 24 24 20 15 13 10 10 12 15 13 17 21 24 25 26 28 30 29 32 34 39 37 39 40 38 37 37 37 34
83 82 82 77 54 15 8 10 15 17 23 21 20 21 22 20 21 22 22 23 22 19 15 13 11 11 15 14 16 22 23 25 27 28 32 32 37 40 39 41 42 38 38 35 34 36 35
94 85 82 84 84 51 26 9 9 11 15 14 18 18 20 18 17 17 17 17 20 21 18 14 13 11 10 15 14 21 25 27 29 28 29 32 34 39 35 36 39 38 36 31 30 34 33
91 89 89 83 78 81 58 23 12 10 10 11 16 29 20 17 18 17 16 19 17 20 19 17 14 14 12 14 13 22 25 29 31 29 33 35 34 37 38 36 36 39 36 31 32 33 30
98 96 91 88 79 82 91 84 28 15 18 20 34 38 31 16 18 19 18 19 21 18 18 18 17 15 12 13 16 25 26 30 29 31 33 36 37 37 33 33 33 33 32 36 34 33 30
90 85 92 97 80 82 81 96 92 46 49 67 48 52 30 19 17 21 20 20 22 20 19 17 19 16 13 12 15 30 24 28 32 34 34 34 36 32 37 36 38 42 41 40 38 34 34
77 83 92 100 90 82 88 97 92 86 95 92 73 50 34 44 23 20 20 22 25 23 19 17 21 18 15 15 18 24 24 26 31 34 37 45 41 42 39 41 42 43 43 41 39 36 33
25 68 76 82 87 94 98 89 88 79 97 93 89 61 70 77 30 22 30 28 26 29 19 20 18 18 16 18 15 14 22 24 30 32 44 46 41 42 43 44 44 42 41 39 36 38 40
12 10 10 23 75 76 78 84 89 92 99 93 88 96 86 87 70 55 56 35 34 30 31 14 13 14 14 18 13 10 19 27 31 35 40 43 36 41 42 44 44 42 40 38 43 43 40
8 11 12 11 10 13 38 70 70 72 70 78 92 88 89 94 86 75 61 58 35 41 38 27 20 19 14 14 14 11 12 28 33 35 41 44 38 39 39 42 41 41 40 41 44 44 48
4 4 6 8 10 10 9 8 9 16 33 66 79 89 98 97 90 91 80 69 80 50 52 26 37 35 25 24 21 21 19 28 31 38 41 36 41 43 44 43 44 45 45 45 44 46 48
4 4 3 3 4 4 6 8 8 8 8 17 77 100 98 100 96 81 84 78 51 52 50 28 36 37 36 32 33 38 35 42 43 45 43 34 36 40 40 41 47 46 47 46 46 50 63
5 4 4 4 3 3 3 3 3 5 7 10 30 91 100 97 99 93 90 67 68 56 41 31 30 34 38 42 43 44 43 48 48 46 40 37 36 48 46 48 49 51 50 50 61 62 71
5 5 5 4 5 4 3 3 2 2 3 6 11 30 60 85 65 91 92 75 70 63 52 43 46 52 49 47 43 48 48 49 46 46 53 54 43 53 53 47 51 52 48 47 76 85 53
6 5 5 5 5 5 5 5 4 3 3 3 5 15 35 51 96 97 78 91 69 68 60 44 56 40 34 38 47 47 48 50 49 50 54 60 58 56 54 54 55 52 53 47 62 66 84
9 9 7 7 6 6 6 6 6 5 4 3 4 14 82 99 100 96 87 75 76 70 73 51 52 47 58 37 47 46 51 48 48 50 58 59 62 56 58 58 56 50 48 53 66 94 89
9 10 10 10 11 9 8 8 7 7 6 4 4 11 28 97 89 99 94 94 91 85 73 57 52 57 57 54 54 53 56 54 58 59 58 61 63 65 64 55 51 49 42 63 70 72 99
6 8 9 10 12 15 13 10 10 8 8 7 5 41 16 71 92 87 99 100 81 75 73 64 60 65 56 55 61 63 61 64 62 61 64 68 71 70 64 61 60 57 55 68 67 77 83
11 10 10 9 11 18 21 18 12 11 10 10 7 34 92 88 95 87 99 92 91 80 82 73 64 66 61 61 68 66 69 67 64 73 71 62 74 73 61 49 46 68 74 72 79 80 92
17 18 17 13 12 15 24 28 21 13 12 12 14 26 92 100 99 85 93 95 84 90 76 77 67 58 54 71 75 68 74 73 73 74 78 70 82 70 70 64 67 69 74 70 85 99 89
14 16 22 23 22 24 28 36 35 20 14 18 20 20 30 57 65 83 99 95 88 97 83 74 74 68 63 72 71 63 52 79 76 97 80 84 78 77 71 73 79 87 94 84 85 81 91
23 23 23 37 35 77 84 65 84 33 22 28 19 26 31 64 100 87 69 52 52 92 80 50 52 54 63 63 73 75 83 97 79 92 94 69 90 78 83 82 84 89 85 73 82 65 62
42 60 61 76 74 92 100 100 100 88 49 30 25 20 30 34 98 100 72 53 49 85 90 72 71 93 82 73 69 76 75 84 88 79 98 88 82 86 96 89 95 95 78 75 66 63 65
96 95 93 99 99 100 100 100 100 100 45 38 23 28 45 39 48 38 37 32 76 93 88 88 76 70 62 70 67 67 69 85 96 91 88 85 88 94 97 98 95 71 62 65 67 70 75
98 97 99 98 98 96 96 95 99 100 93 41 37 32 44 44 28 37 64 97 100 100 99 90 94 56 61 93 96 100 99 99 96 100 94 85 76 99 99 98 90 83 60 66 67 67 86
96 96 97 97 97 94 95 94 94 97 99 66 40 35 47 47 36 69 75 86 94 97 82 51 65 90 97 100 100 100 98 95 95 87 84 84 94 99 99 98 87 68 75 82 84 86 81
96 94 93 94 97 95 93 95 96 97 98 99 54 42 49 47 55 62 42 65 65 59 66 74 70 95 99 99 100 100 99 98 99 93 81 83 98 98 99 98 92 80 86 94 94 88 93
95 96 94 96 97 95 94 93 95 98 97 98 86 48 56 38 66 77 77 94 85 98 86 98 99 94 99 99 96 99 99 99 99 92 82 85 96 97 98 98 92 84 90 88 96 96 83
94 95 95 96 96 95 93 85 97 97 97 98 95 68 50 80 59 81 98 100 92 93 90 96 98 99 99 100 98 100 98 99 95 99 96 99 93 93 98 91 93 95 97 97 86 60 56

GFSGBSN_700_rhum_240.txt.gz
RH
72 41 19 11 15 23 31 36 39 41 40 39 38 36 35 33 30 29 28 27 25 24 22 21 19 15 10 10 10 12 13 19 24 23 23 28 28 28 30 27 34 31 26 28 24 19 25
94 80 57 36 68 38 13 16 25 30 32 34 34 34 33 32 30 28 26 25 23 21 19 17 16 16 14 11 10 11 12 16 24 25 24 26 31 31 32 33 37 34 34 29 28 26 27
100 99 94 93 92 80 78 59 13 12 18 21 23 24 25 23 22 19 17 16 15 15 13 12 11 11 12 13 10 10 12 13 22 28 27 27 29 33 34 33 35 35 36 32 30 32 36
100 100 99 96 97 96 87 85 55 14 10 10 11 14 16 18 16 16 14 13 13 12 11 12 12 11 9 12 12 11 11 13 21 27 31 30 30 34 39 38 39 38 38 34 32 36 38
97 99 100 96 95 98 96 92 86 78 50 18 11 10 12 14 15 14 35 29 15 12 11 12 12 13 9 10 11 12 11 15 25 29 36 35 33 33 36 38 37 34 33 30 30 37 38
95 96 100 99 99 95 99 94 94 89 88 74 24 14 12 14 15 31 52 43 26 22 13 16 19 15 11 11 13 15 20 22 30 30 35 38 38 33 32 34 32 34 43 44 44 41 39
95 81 96 100 99 100 97 98 92 96 82 92 95 65 17 16 19 42 52 43 44 34 18 24 28 26 21 15 14 16 19 25 28 28 29 37 38 29 34 39 35 40 43 46 41 41 42
65 92 91 95 98 100 100 100 100 100 96 94 96 95 89 38 71 74 69 63 66 54 42 30 35 32 27 24 16 13 16 20 25 25 26 34 31 31 39 47 47 46 47 45 42 42 42
27 47 71 85 93 98 93 99 100 98 99 99 97 92 100 95 93 88 87 75 71 67 60 36 34 37 35 30 24 13 17 23 20 20 21 33 31 34 40 45 46 45 45 45 44 44 42
18 17 18 38 74 93 98 98 97 100 100 100 99 100 97 98 98 93 92 86 75 70 74 51 35 28 27 25 24 14 14 22 28 26 30 36 25 34 42 43 43 43 40 44 46 46 48
28 19 16 13 14 28 62 90 88 98 97 96 96 98 100 98 96 93 99 97 88 78 77 46 31 34 33 30 23 24 21 20 23 24 35 31 32 45 40 38 40 40 44 46 47 48 50
64 39 16 16 16 16 19 59 60 54 90 97 100 95 99 98 94 95 96 100 100 81 60 43 35 38 35 37 40 38 35 35 33 29 32 33 43 46 44 45 44 43 44 51 51 52 65
91 72 34 20 15 16 15 14 13 14 48 70 49 30 79 85 78 94 97 100 94 74 57 41 37 31 29 32 40 48 46 45 42 51 47 43 39 34 36 42 40 40 53 56 62 60 64
68 50 27 12 10 12 12 12 14 14 14 12 12 12 21 47 82 81 86 97 88 76 66 46 45 42 48 42 43 46 49 49 45 48 50 49 45 53 52 48 47 49 55 60 66 65 56
20 12 12 11 9 9 8 8 8 9 10 11 12 12 12 22 66 70 69 99 81 75 65 56 45 47 45 43 48 40 44 47 49 47 48 50 55 57 54 56 56 58 60 62 58 72 88
23 13 10 10 9 8 8 7 6 6 5 5 6 7 10 19 56 90 100 90 85 80 71 57 50 49 50 52 51 44 41 47 46 46 49 53 54 52 58 59 62 66 62 59 57 87 93
13 11 9 9 8 8 8 7 7 6 5 4 4 4 6 10 53 71 97 100 99 90 77 64 58 55 58 55 65 62 57 54 54 53 50 52 53 56 59 65 65 68 68 73 80 96 98
8 11 12 10 8 8 8 8 7 7 6 6 5 4 4 4 48 80 76 100 99 100 94 73 66 70 67 60 54 56 71 68 70 69 69 67 65 72 80 86 82 73 72 75 90 88 78
6 7 8 13 13 11 9 10 10 8 7 8 7 5 10 22 69 73 100 100 99 99 92 89 82 75 69 67 72 65 61 61 64 73 75 72 82 83 95 88 92 93 77 66 66 68 66
6 6 6 6 8 12 13 12 13 13 8 8 13 10 8 51 49 80 98 99 99 100 98 88 91 81 79 77 71 72 67 66 68 79 81 80 82 82 76 73 77 90 97 99 95 86 72
8 7 6 6 6 7 12 14 15 18 14 10 12 13 10 22 52 70 99 99 98 96 94 99 97 89 79 79 76 74 73 78 79 77 76 83 93 90 90 91 86 86 79 85 86 79 85
12 9 8 7 6 5 7 12 14 26 26 13 13 14 12 16 45 56 82 100 100 100 96 79 84 87 87 88 78 76 85 84 79 71 67 76 89 88 85 84 88 98 77 82 84 73 70
12 10 9 8 7 6 5 9 18 30 80 25 12 15 19 16 54 79 86 68 94 100 99 99 99 92 98 83 90 96 96 87 81 83 78 98 100 90 94 94 92 87 59 67 63 60 58
16 14 12 10 8 6 5 8 22 52 62 48 20 14 20 25 24 64 99 97 72 61 66 71 75 86 76 93 84 73 86 85 83 87 97 90 89 98 96 91 94 60 78 73 63 58 62
15 13 12 10 8 7 6 7 21 34 98 81 65 33 21 24 51 33 58 63 95 98 93 98 100 93 89 96 98 99 79 67 50 58 72 71 84 96 93 83 81 78 71 68 71 69 67
10 9 8 7 7 6 6 6 22 36 95 100 100 70 44 45 39 50 65 71 85 86 78 83 98 96 99 100 100 97 86 76 72 72 59 77 94 99 98 99 94 72 79 76 77 82 71
13 16 13 10 8 6 7 7 22 36 95 96 97 100 84 55 55 52 65 75 77 74 77 68 70 100 97 95 99 98 97 88 88 79 74 72 81 97 99 99 89 79 82 97 96 81 86
68 54 40 26 13 10 9 9 19 28 76 97 98 100 96 84 60 67 75 77 83 98 93 74 84 89 96 97 100 94 85 86 97 96 91 88 87 86 92 99 92 82 89 95 97 98 97
87 87 87 76 41 23 17 17 30 33 67 98 98 96 96 100 76 62 85 83 99 87 83 86 96 90 98 86 72 64 87 90 93 100 88 96 86 88 88 80 81 96 100 99 98 100 98

GFSGBSN_700_rhum_246.txt.gz
RH
23 11 9 14 26 37 41 44 45 44 40 38 38 35 32 32 30 26 25 24 22 19 19 18 17 16 17 16 14 12 9 9 10 13 20 22 26 26 38 28 26 29 33 27 25 22 20
70 84 40 11 10 16 27 36 42 44 44 41 40 38 36 35 33 30 28 26 24 21 19 18 17 16 15 13 12 12 11 9 9 11 19 21 24 26 28 29 29 28 30 30 29 27 32
100 91 100 91 40 12 11 20 31 37 40 41 41 40 37 36 34 32 31 28 26 22 20 19 18 16 13 10 9 9 11 11 9 11 15 23 25 26 26 28 26 29 30 34 36 30 33
99 99 100 99 98 68 27 13 13 22 29 33 36 37 36 36 35 32 30 28 26 24 21 18 14 9 7 7 7 8 10 12 11 11 15 22 26 28 30 28 29 32 36 32 33 35 38
99 100 100 98 100 97 81 55 13 14 15 19 22 24 28 28 29 28 27 24 21 16 15 10 8 6 5 5 6 8 10 13 13 14 17 22 28 31 32 37 38 40 30 35 34 34 41
98 100 99 100 99 100 98 99 50 27 34 30 29 21 13 14 16 16 16 14 10 9 8 9 8 9 8 8 10 11 12 13 15 19 26 26 30 38 44 40 28 32 36 40 39 40 43
99 100 100 99 98 99 99 100 92 50 68 72 63 64 24 15 10 9 8 7 10 13 20 27 26 14 13 14 12 15 14 15 19 28 44 38 39 42 38 43 45 46 45 40 40 42 42
87 99 99 99 100 99 100 99 100 98 96 94 90 85 58 58 27 14 10 11 17 31 35 38 38 32 30 17 20 26 25 22 18 32 43 42 40 42 31 35 39 50 48 44 42 44 44
39 61 76 86 97 100 97 97 99 100 100 100 86 96 80 86 63 48 18 31 42 61 62 41 43 38 38 36 30 22 31 28 24 37 48 48 39 29 29 42 44 50 48 47 45 45 46
12 14 31 52 76 100 91 99 99 100 98 97 99 96 91 86 84 84 83 52 61 72 67 52 43 43 39 36 39 35 35 36 34 35 48 43 41 25 26 29 45 44 48 48 45 45 37
20 17 17 38 69 98 84 89 99 93 94 100 98 100 92 95 97 98 97 90 79 73 53 48 47 41 38 38 32 32 30 27 36 47 26 33 35 36 33 38 36 42 44 49 49 46 45
54 24 16 18 54 76 91 84 79 83 96 94 99 98 98 100 100 98 100 99 97 87 78 56 45 42 42 40 34 36 38 34 27 34 26 33 44 31 38 36 45 49 48 53 54 48 46
99 72 31 17 19 48 67 71 66 71 77 91 96 100 90 98 98 98 99 100 100 98 64 57 46 42 49 48 48 46 43 44 52 54 51 49 50 51 35 47 45 48 50 40 38 44 37
98 97 74 35 29 17 19 24 31 35 41 82 84 80 100 97 99 99 100 100 100 87 77 53 50 41 48 42 42 45 47 56 45 46 48 41 44 61 57 58 55 54 44 38 43 34 29
93 96 100 88 45 28 19 16 16 15 19 31 57 85 79 75 91 97 100 100 99 91 78 52 53 52 48 48 46 44 42 49 49 50 51 48 49 56 57 57 50 66 56 60 60 66 60
96 90 98 94 78 57 30 22 23 17 15 14 15 22 26 84 79 86 94 98 99 78 70 72 76 67 56 57 48 48 49 48 53 52 54 56 52 50 52 54 61 62 64 61 61 65 51
88 94 93 99 100 81 51 42 32 23 20 20 17 17 15 27 92 96 94 85 64 88 76 73 63 60 58 62 66 63 68 56 62 66 60 61 63 65 60 69 69 70 68 79 81 82 98
96 99 95 88 93 97 73 63 32 27 24 21 18 17 15 18 63 79 68 44 73 95 82 74 65 61 59 58 68 64 74 70 73 64 79 70 65 65 69 66 72 66 77 67 74 70 95
93 92 92 90 97 90 84 54 24 19 17 14 14 13 14 15 40 56 69 99 100 96 92 83 71 66 67 63 62 58 58 57 49 61 75 76 85 72 78 80 75 88 74 70 77 84 98
90 90 91 88 82 80 50 29 16 14 13 16 14 14 13 60 47 75 98 93 95 100 97 96 92 89 78 76 68 76 80 72 79 79 78 78 75 77 66 65 80 82 89 94 93 98 78
82 82 85 96 89 76 46 22 16 15 13 16 13 18 13 57 55 45 90 98 99 97 98 99 98 98 96 85 78 83 84 77 77 76 77 73 84 88 80 74 83 92 86 83 84 80 84
87 89 88 89 72 76 48 28 14 13 20 24 18 21 13 15 45 33 60 91 97 99 93 90 98 92 98 89 81 84 92 86 90 86 76 74 91 77 74 66 77 80 81 82 81 76 70
93 92 84 45 39 56 66 46 24 18 51 35 14 12 21 35 18 62 49 67 84 93 99 81 87 89 89 90 98 85 90 86 92 87 97 82 92 92 83 74 80 74 53 63 68 69 72
95 96 43 26 18 20 32 33 29 22 26 75 46 16 19 42 52 80 61 74 65 84 86 77 81 84 97 93 94 95 94 86 85 77 78 56 75 95 91 85 82 57 55 59 66 71 71
93 93 36 11 7 7 9 19 25 27 28 69 39 47 25 47 42 62 96 82 47 84 99 92 79 88 100 97 95 96 90 90 86 84 72 60 92 99 86 74 66 58 62 70 73 71 72
90 88 66 7 6 7 7 8 13 12 21 72 64 39 58 59 38 68 74 81 68 49 84 89 98 99 94 89 97 89 78 76 88 75 61 72 77 98 95 92 65 60 64 64 69 80 80
85 73 72 12 9 9 8 9 9 10 13 53 80 69 67 82 86 46 57 85 68 72 78 81 86 90 86 89 81 98 96 83 77 85 62 74 99 97 91 98 88 73 71 73 94 87 84
72 66 65 22 12 12 11 10 9 9 10 27 60 71 85 83 80 67 53 55 54 47 56 56 83 93 98 94 97 98 86 85 78 78 67 66 89 97 100 98 86 67 77 86 86 89 87
49 48 38 19 15 15 15 13 11 10 9 24 62 73 100 88 98 74 70 49 49 67 52 52 67 57 65 72 76 73 98 99 88 82 90 88 84 89 78 87 68 83 74 76 75 69 84

GFSGBSN_700_rhum_252.txt.gz
RH
42 14 23 30 35 42 44 43 40 38 37 35 34 32 30 29 27 25 24 23 22 21 20 19 18 17 16 16 26 15 13 11 10 10 10 8 14 37 36 34 32 32 31 29 30 30 30
52 24 14 16 23 27 33 38 42 41 40 37 34 33 31 30 28 28 25 24 23 22 21 19 18 17 17 16 16 14 12 11 10 9 9 10 24 35 25 34 35 33 34 34 31 30 30
95 56 26 16 13 12 14 20 28 32 36 38 38 36 33 31 29 28 27 25 23 23 21 20 19 18 17 16 15 14 13 10 8 7 8 14 11 14 36 35 38 38 35 33 31 29 30
99 89 64 81 72 60 72 32 11 10 17 24 30 34 34 32 31 30 29 27 25 23 22 21 21 20 16 16 15 14 14 11 8 6 8 12 11 11 16 20 16 33 32 31 27 28 30
99 100 94 81 79 81 84 69 40 16 8 10 13 19 22 26 28 30 30 29 28 26 25 24 23 21 19 15 12 8 7 7 8 6 7 10 12 12 30 38 32 26 25 24 27 28 28
100 100 99 98 96 94 84 84 76 47 28 13 8 7 8 9 11 14 15 18 20 21 22 20 20 16 18 20 13 8 7 8 10 18 36 30 37 41 41 36 26 28 30 30 27 28 32
100 100 100 100 99 100 98 78 76 78 72 64 52 33 12 8 8 8 7 8 9 18 16 11 29 21 35 28 9 10 26 12 13 36 46 44 45 41 32 28 34 33 32 28 27 25 25
99 100 100 98 98 98 100 98 91 97 90 76 76 74 66 23 14 12 12 13 10 9 13 9 5 6 6 9 10 18 22 32 44 48 41 42 39 38 32 33 32 31 30 29 27 27 33
100 99 99 98 97 99 99 97 95 91 90 93 73 80 86 66 30 29 40 26 20 15 11 6 6 7 9 21 16 21 46 39 39 39 41 37 31 34 35 36 34 27 23 25 32 32 32
98 100 99 100 99 99 98 96 96 98 98 86 83 98 97 90 65 54 68 49 47 35 21 25 28 36 22 10 34 25 39 45 44 38 37 37 35 33 36 33 33 28 27 23 25 34 30
74 85 96 99 100 100 99 93 89 91 96 89 88 90 98 89 82 79 71 68 74 59 38 42 52 36 42 32 43 40 37 39 46 43 42 41 34 36 38 35 30 28 31 34 31 29 30
52 67 67 77 89 98 100 100 95 92 91 93 94 90 74 95 99 88 84 84 83 76 54 40 47 36 41 37 38 45 41 29 40 44 42 40 40 36 32 34 31 30 33 38 34 33 36
44 33 42 47 49 45 43 56 92 96 95 89 91 88 77 90 85 100 93 98 94 80 47 43 50 51 48 51 45 48 49 38 46 40 38 36 34 34 30 38 38 33 36 34 34 32 36
94 61 33 33 26 20 22 40 74 81 68 64 81 82 75 76 81 96 100 100 99 72 59 57 48 49 48 47 49 48 48 44 45 47 39 31 40 40 39 45 50 49 38 37 48 41 33
99 85 70 42 33 22 14 14 18 21 31 42 58 85 71 87 79 98 100 100 99 87 74 65 60 48 46 47 46 46 44 40 48 45 40 39 40 52 53 53 46 51 48 56 49 39 38
99 96 90 75 55 41 24 17 12 10 11 23 61 98 93 89 83 88 100 100 98 94 87 75 70 62 46 44 43 41 39 47 51 50 43 49 43 49 56 45 44 47 49 44 41 60 58
100 98 97 97 75 65 46 22 19 13 12 41 80 94 95 90 86 87 97 80 58 57 90 68 81 77 61 49 46 42 44 68 70 59 56 47 45 52 55 48 45 60 62 58 55 58 64
100 94 93 96 89 94 73 45 26 20 17 28 72 80 94 92 85 87 90 95 77 60 94 96 81 82 79 76 64 50 61 80 90 67 55 58 64 57 50 64 62 63 56 54 58 56 68
99 91 92 96 89 100 96 79 54 26 22 25 41 70 75 77 86 98 82 96 93 90 94 97 98 89 85 87 73 66 72 82 65 69 56 79 69 64 54 70 72 65 63 62 60 65 76
91 98 93 91 93 95 96 100 85 60 55 40 90 83 90 50 50 90 98 92 91 92 96 94 93 89 89 96 89 86 77 93 66 53 45 45 60 67 70 66 82 80 68 67 57 60 74
100 95 84 86 92 89 94 98 100 94 86 52 96 90 74 62 37 64 84 82 92 88 86 97 98 94 82 84 98 87 79 84 75 73 66 65 78 67 66 66 79 71 63 60 58 57 60
98 95 97 88 93 82 81 88 96 97 94 57 94 96 98 94 55 42 79 81 86 86 92 92 95 81 76 72 74 71 76 85 94 99 74 83 82 78 67 64 74 62 55 52 52 53 47
98 98 99 99 94 79 81 92 92 94 96 75 82 96 98 79 99 94 73 78 83 79 77 90 90 94 83 77 84 96 89 90 86 86 85 78 82 87 87 73 60 57 50 52 54 47 44
94 98 97 95 91 89 90 88 88 89 86 88 90 98 98 97 93 94 89 83 76 81 80 96 89 87 90 97 97 94 86 96 87 85 85 83 90 89 89 81 82 51 52 47 45 46 48
95 89 98 100 92 92 87 79 84 88 89 80 85 100 92 98 90 83 88 84 80 78 80 90 94 97 90 94 92 98 92 90 83 82 80 83 87 99 93 78 63 55 49 51 52 48 62
97 98 99 97 96 86 79 76 90 91 86 59 76 56 77 91 88 73 71 80 78 80 82 87 97 94 98 94 100 96 72 70 63 78 87 91 87 96 99 90 66 44 56 52 48 54 56
97 93 95 95 94 93 85 81 87 93 86 51 89 100 94 76 72 80 82 85 73 78 78 76 87 83 64 81 84 98 80 64 69 94 77 98 96 99 98 88 77 49 62 62 66 66 65
95 86 84 92 88 84 81 86 88 86 77 72 53 100 99 96 80 91 98 98 94 92 92 74 91 84 84 89 99 94 89 78 69 67 77 66 79 91 95 99 91 54 64 77 80 73 80
98 100 96 89 91 87 86 88 88 75 77 82 56 79 97 96 76 72 80 88 94 90 86 94 95 82 78 87 84 87 89 83 73 70 63 80 75 75 70 61 52 68 74 67 55 51 71